Weather History for Wake Island, Wake Island Army, GU

Change the Weather History Date:

Tuesday, November 20, 2012

  Actual Average Record
Temperature  
Mean Temperature 81 °F -  
Max Temperature 84 °F 83 °F 87 °F (2000)
Min Temperature 78 °F 77 °F 73 °F (2011)
Cooling Degree Days 16    
Growing Degree Days 31 (Base 50)    
Moisture  
Dew Point 72 °F    
Average Humidity 71    
Maximum Humidity 79    
Minimum Humidity 58    
Precipitation  
Precipitation 0.00 in - - ()
Sea Level Pressure  
Sea Level Pressure 29.93 in    
Wind  
Wind Speed 13 mph (ENE)    
Max Wind Speed 15 mph    
Max Gust Speed -    
Visibility 10 miles    
Events      
Averages and records for this station are not official NWS values.
T = Trace of Precipitation, MM = Missing Value Source: NWS Daily Summary

Daily Weather History Graph

Daily Weather History Graph

Search for Another Location

Airport:

Trip Planner

Search our weather history database for the weather conditions in past years. The results will help you decide how hot, cold, wet, or windy it might be!

Date:

Astronomy

Nov. 20, 2012 Rise Set
Actual Time 7:03 AM WAKT 6:13 PM WAKT
Civil Twilight 6:40 AM WAKT 6:37 PM WAKT
Nautical Twilight 6:13 AM WAKT 7:03 PM WAKT
Astronomical Twilight 5:47 AM WAKT 7:30 PM WAKT
Moon 12:36 PM WAKT (11/20) No Moon Set
Length of Visible Light 11h 56m
Length of Day
11h 09m
Waxing Crescent, 43% of the Moon is Illuminated
Nov 20
Waxing Crescent
Nov 21
First Quarter
Nov 29
Full
Dec 7
Last Quarter
Dec 13
New

Hourly Weather History & Observations

Time (WAKT) Temp. Heat Index Dew Point Humidity Pressure Visibility Wind Dir Wind Speed Gust Speed Precip Events Conditions
12:55 AM 80.6 °F 83.9 °F 69.8 °F 70% 29.94 in 10.0 mi NE 13.8 mph - N/A   Partly Cloudy
1:55 AM 80.6 °F 84.6 °F 71.6 °F 74% 29.93 in 10.0 mi NE 15.0 mph - N/A   Mostly Cloudy
2:55 AM 80.6 °F 84.6 °F 71.6 °F 74% 29.92 in 10.0 mi NE 15.0 mph - N/A   Partly Cloudy
3:55 AM 78.8 °F - 69.8 °F 74% 29.91 in 10.0 mi NE 11.5 mph - N/A   Mostly Cloudy
4:55 AM 78.8 °F - 68.0 °F 69% 29.92 in 10.0 mi NE 12.7 mph - N/A   Scattered Clouds
5:55 AM 80.6 °F 83.9 °F 69.8 °F 70% 29.92 in 10.0 mi NE 15.0 mph - N/A   Scattered Clouds
6:55 AM 78.8 °F - 69.8 °F 74% 29.93 in 10.0 mi NE 12.7 mph - N/A   Partly Cloudy
7:55 AM 80.6 °F 83.9 °F 69.8 °F 70% 29.94 in 10.0 mi NE 13.8 mph - N/A   Partly Cloudy
8:55 AM 82.4 °F 86.3 °F 69.8 °F 66% 29.96 in 10.0 mi ENE 13.8 mph - N/A   Partly Cloudy
9:55 AM 82.4 °F 87.2 °F 71.6 °F 70% 29.97 in 10.0 mi ENE 12.7 mph - N/A   Partly Cloudy
10:55 AM 84.2 °F 89.6 °F 71.6 °F 66% 29.96 in 10.0 mi ENE 12.7 mph - N/A   Mostly Cloudy
11:55 AM 84.2 °F 89.6 °F 71.6 °F 66% 29.94 in 10.0 mi ENE 10.4 mph - N/A   Mostly Cloudy
12:55 PM 84.2 °F 89.6 °F 71.6 °F 66% 29.92 in 10.0 mi ENE 12.7 mph - N/A   Mostly Cloudy
1:55 PM 84.2 °F 89.6 °F 71.6 °F 66% 29.90 in 10.0 mi East 10.4 mph - N/A   Mostly Cloudy
2:55 PM 82.4 °F 87.2 °F 71.6 °F 70% 29.88 in 10.0 mi ENE 11.5 mph - N/A   Scattered Clouds
3:58 PM 84.2 °F 90.9 °F 73.4 °F 70% 29.89 in 10.0 mi ENE 10.4 mph - N/A   Partly Cloudy
4:55 PM 84.2 °F 89.6 °F 71.6 °F 66% 29.90 in 10.0 mi East 9.2 mph - N/A   Scattered Clouds
5:59 PM 82.4 °F 88.2 °F 73.4 °F 74% 29.92 in 10.0 mi ENE 9.2 mph - N/A   Partly Cloudy
6:59 PM 80.6 °F 85.4 °F 73.4 °F 79% 29.93 in 10.0 mi ENE 10.4 mph - N/A   Partly Cloudy
7:59 PM 80.6 °F 85.4 °F 73.4 °F 79% 29.95 in 10.0 mi ENE 10.4 mph - N/A   Partly Cloudy
8:59 PM 80.6 °F 85.4 °F 73.4 °F 79% 29.96 in 10.0 mi ENE 9.2 mph - N/A   Partly Cloudy
9:59 PM 80.6 °F 85.4 °F 73.4 °F 79% 29.96 in 10.0 mi ENE 10.4 mph - N/A   Partly Cloudy
10:55 PM 80.6 °F 85.4 °F 73.4 °F 79% 29.97 in 10.0 mi ENE 11.5 mph - N/A   Scattered Clouds
11:55 PM 80.6 °F 85.4 °F 73.4 °F 79% 29.95 in 10.0 mi ENE 10.4 mph - N/A   Partly Cloudy